Torna al catalogo

FENGYUN 1C DEB

AttivoSSO
NORAD 31254·DEBRIS·🇨🇳 China

Lanciato May 10, 1999 da Taiyuan Satellite Launch Center

Loading…

Prossimi Passaggi (prossime 24 ore)

TLE

AggiornatoSource: Space-Track

Epoca: Sep 14, 2026, 09:10 UTC

1 31254U 99025BML 26257.38233976  .00000856  00000-0  26643-3 0  9996
2 31254  98.4269 306.8952 0151193  99.7220 324.3364 14.37056588 13553

Traccia FENGYUN 1C DEB in tempo reale con AllMySat

Download on the App Store